Date String (YYYY-MM-DD hh:mm:ss) UTC,Instrument flags,absolute air pressure of the measurement (hPa),sample flow rate (lpm),inlet stack bypass flow (lpm),air temperature of the measurement (°C),ambient temperature measured by the external sensor (°C),aerosol sample conditioner tube jacket temperature (°C),OPC LED temperature (°C),internal box temperature (°C),relative humidity of the measurement (%),span deviation,mass concentration of particles derived from Lorenz-Mie calculation of OPC scattering (μg/m³),mass concentration of particles derived from Lorenz-Mie calculation of OPC scattering (μg/m³),mass concentration of particles derived from Lorenz-Mie calculation of OPC scattering (μg/m³)
DateTimeUTC,F1_M11,P_M11,Q1_M11,Q2_M11,T1_M11,T2_M11,T3_M11,T4_M11,T5_M11,U1_M11,ZSPAN_M11,X0_M11,X2_M11,X1_M11
2023-12-27 05:00:00,SystemResetWarning,0827.9,5.01,000.00,020.0,019.4,000.0,028.3,021.4,12.7,0000.0,0001.14,0000.74,0000.57
2023-12-27 05:01:00,SystemResetWarning,0827.5,5.01,000.00,020.0,019.4,000.0,028.3,021.3,12.8,0000.0,0001.11,0000.72,0000.56
2023-12-27 05:02:00,SystemResetWarning,0827.5,5.00,000.00,020.0,019.4,000.0,028.3,021.3,12.9,0000.0,0001.19,0000.76,0000.55
2023-12-27 05:03:00,SystemResetWarning,0827.5,5.00,000.00,020.0,019.4,000.0,028.3,021.3,13.0,0000.0,0001.26,0000.79,0000.56
2023-12-27 05:04:00,SystemResetWarning,0827.6,4.99,000.00,020.0,019.4,000.0,028.3,021.3,13.0,0000.0,0001.29,0000.80,0000.57
2023-12-27 05:05:00,SystemResetWarning,0827.6,5.00,000.00,020.0,019.4,000.0,028.3,021.3,13.1,0000.0,0001.28,0000.79,0000.56
2023-12-27 05:06:00,SystemResetWarning,0827.6,5.01,000.00,020.0,019.4,000.0,028.3,021.3,13.0,0000.0,0001.15,0000.76,0000.56
2023-12-27 05:07:00,SystemResetWarning,0827.6,5.01,000.00,020.0,019.4,000.0,028.3,021.3,13.1,0000.0,0001.11,0000.75,0000.57
2023-12-27 05:08:00,SystemResetWarning,0827.7,5.00,000.00,020.0,019.4,000.0,028.3,021.3,13.0,0000.0,0001.08,0000.74,0000.57
2023-12-27 05:09:00,SystemResetWarning,0827.7,4.99,000.00,020.0,019.4,000.0,028.3,021.3,13.0,0000.0,0001.08,0000.75,0000.58
2023-12-27 05:10:00,SystemResetWarning,0827.7,4.99,000.00,020.0,019.4,000.0,028.3,021.3,13.0,0000.0,0001.10,0000.77,0000.60
2023-12-27 05:11:00,SystemResetWarning,0827.7,5.00,000.00,020.0,019.4,000.0,028.3,021.2,13.1,0000.0,0001.16,0000.82,0000.64
2023-12-27 05:12:00,SystemResetWarning,0827.6,5.00,000.00,020.0,019.4,000.0,028.3,021.3,13.0,0000.0,0001.34,0000.92,0000.71
2023-12-27 05:13:00,SystemResetWarning,0827.6,5.00,000.00,020.0,019.4,000.0,028.3,021.2,13.0,0000.0,0001.42,0000.97,0000.78
2023-12-27 05:14:00,SystemResetWarning,0827.6,5.00,000.00,020.0,019.4,000.0,028.3,021.2,13.0,0000.0,0001.50,0001.03,0000.84
2023-12-27 05:15:00,SystemResetWarning,0827.6,5.00,000.00,020.0,019.4,000.0,028.3,021.2,13.0,0000.0,0001.60,0001.11,0000.92
2023-12-27 05:16:00,SystemResetWarning,0827.6,5.00,000.00,020.0,019.4,000.0,028.3,021.2,13.1,0000.0,0001.81,0001.22,0001.02
2023-12-27 05:17:00,SystemResetWarning,0827.6,4.99,000.00,020.0,019.3,000.0,028.3,021.2,13.1,0000.0,0002.00,0001.34,0001.12
2023-12-27 05:18:00,SystemResetWarning,0827.6,5.00,000.00,020.0,019.3,000.0,028.3,021.2,13.2,0000.0,0002.18,0001.45,0001.21
2023-12-27 05:19:00,SystemResetWarning,0827.6,4.99,000.00,020.0,019.3,000.0,028.3,021.2,13.2,0000.0,0002.37,0001.59,0001.33
2023-12-27 05:20:00,SystemResetWarning,0827.6,4.99,000.00,020.0,019.2,000.0,028.3,021.2,13.2,0000.0,0002.56,0001.72,0001.44
2023-12-27 05:21:00,SystemResetWarning,0827.5,5.01,000.00,020.0,019.2,000.0,028.3,021.2,13.3,0000.0,0002.66,0001.80,0001.52
2023-12-27 05:22:00,SystemResetWarning,0827.5,5.01,000.00,019.9,019.2,000.0,028.3,021.1,13.2,0000.0,0002.76,0001.86,0001.57
2023-12-27 05:23:00,SystemResetWarning,0827.6,5.00,000.00,019.9,019.1,000.0,028.3,021.1,13.0,0000.0,0002.72,0001.87,0001.59
2023-12-27 05:24:00,SystemResetWarning,0827.5,4.99,000.00,019.9,019.1,000.0,028.3,021.1,13.0,0000.0,0002.68,0001.87,0001.61
2023-12-27 05:25:00,SystemResetWarning,0827.6,5.00,000.00,019.9,019.1,000.0,028.3,021.1,13.1,0000.0,0002.64,0001.88,0001.63
2023-12-27 05:26:00,SystemResetWarning,0827.7,4.99,000.00,019.9,019.1,000.0,028.3,021.2,13.0,0000.0,0002.73,0001.88,0001.64
2023-12-27 05:27:00,SystemResetWarning,0827.7,5.00,000.00,019.9,019.1,000.0,028.3,021.2,13.1,0000.0,0002.75,0001.88,0001.64
2023-12-27 05:28:00,SystemResetWarning,0827.7,5.01,000.00,019.9,019.1,000.0,028.3,021.2,13.1,0000.0,0002.86,0001.90,0001.65
2023-12-27 05:29:00,SystemResetWarning,0827.7,5.01,000.00,020.0,019.1,000.0,028.3,021.1,13.1,0000.0,0002.86,0001.92,0001.65
2023-12-27 05:30:00,SystemResetWarning,0827.7,5.00,000.00,019.9,019.2,000.0,028.3,021.2,13.1,0000.0,0002.91,0001.94,0001.65
2023-12-27 05:31:00,SystemResetWarning,0827.7,4.99,000.00,019.9,019.1,000.0,028.3,021.2,13.1,0000.0,0002.93,0001.95,0001.65
2023-12-27 05:32:00,SystemResetWarning,0827.7,4.99,000.00,019.9,019.1,000.0,028.3,021.1,13.1,0000.0,0002.99,0001.99,0001.68
2023-12-27 05:33:00,SystemResetWarning,0827.7,5.01,000.00,019.9,019.1,000.0,028.3,021.1,13.1,0000.0,0003.03,0002.02,0001.71
2023-12-27 05:34:00,SystemResetWarning,0827.7,5.01,000.00,019.9,019.1,000.0,028.3,021.1,13.0,0000.0,0003.13,0002.06,0001.74
2023-12-27 05:35:00,SystemResetWarning,0827.8,5.01,000.00,019.9,019.1,000.0,028.3,021.1,13.0,0000.0,0003.34,0002.12,0001.77
2023-12-27 05:36:00,SystemResetWarning,0827.8,5.01,000.00,019.9,019.1,000.0,028.2,021.1,13.1,0000.0,0003.38,0002.13,0001.79
2023-12-27 05:37:00,SystemResetWarning,0827.8,4.99,000.00,019.9,019.1,000.0,028.2,021.2,13.1,0000.0,0003.29,0002.15,0001.81
2023-12-27 05:38:00,SystemResetWarning,0827.8,4.99,000.00,019.9,019.1,000.0,028.2,021.2,13.1,0000.0,0003.72,0002.21,0001.85
2023-12-27 05:39:00,SystemResetWarning,0827.8,5.00,000.00,019.9,019.2,000.0,028.2,021.2,13.1,0000.0,0004.33,0002.27,0001.92
2023-12-27 05:40:00,SystemResetWarning,0827.8,5.01,000.00,019.9,019.2,000.0,028.2,021.2,13.0,0000.0,0004.40,0002.33,0001.96
2023-12-27 05:41:00,SystemResetWarning,0827.8,5.01,000.00,019.9,019.2,000.0,028.2,021.2,13.1,0000.0,0004.42,0002.36,0002.01
2023-12-27 05:42:00,SystemResetWarning,0827.8,5.00,000.00,019.9,019.3,000.0,028.2,021.2,13.1,0000.0,0004.42,0002.39,0002.05
2023-12-27 05:43:00,SystemResetWarning,0827.8,5.00,000.00,020.0,019.3,000.0,028.2,021.2,12.9,0000.0,0004.56,0002.45,0002.10
2023-12-27 05:44:00,SystemResetWarning,0827.9,5.00,000.00,020.0,019.2,000.0,028.3,021.2,13.0,0000.0,0004.62,0002.52,0002.16
2023-12-27 05:45:00,SystemResetWarning,0827.8,5.00,000.00,020.0,019.3,000.0,028.3,021.2,12.9,0000.0,0004.79,0002.63,0002.24
2023-12-27 05:46:00,SystemResetWarning,0827.9,5.00,000.00,020.0,019.3,000.0,028.3,021.2,12.8,0000.0,0004.80,0002.71,0002.31
2023-12-27 05:47:00,SystemResetWarning,0827.8,5.00,000.00,020.0,019.3,000.0,028.3,021.2,12.9,0000.0,0004.89,0002.78,0002.38
2023-12-27 05:48:00,SystemResetWarning,0827.8,5.00,000.00,020.0,019.2,000.0,028.3,021.2,12.8,0000.0,0004.94,0002.85,0002.44
2023-12-27 05:49:00,SystemResetWarning,0827.8,4.99,000.00,020.0,019.2,000.0,028.3,021.2,12.9,0000.0,0004.72,0002.87,0002.47
2023-12-27 05:50:00,SystemResetWarning,0827.8,5.00,000.00,019.9,019.2,000.0,028.3,021.2,12.9,0000.0,0003.82,0002.85,0002.46
2023-12-27 05:51:00,SystemResetWarning,0827.8,5.00,000.00,019.9,019.2,000.0,028.3,021.1,12.9,0000.0,0005.05,0002.86,0002.46
2023-12-27 05:52:00,SystemResetWarning,0827.8,5.01,000.00,019.9,019.2,000.0,028.2,021.1,12.9,0000.0,0005.16,0002.84,0002.44
2023-12-27 05:53:00,SystemResetWarning,0827.8,5.00,000.00,019.9,019.2,000.0,028.3,021.1,12.9,0000.0,0005.10,0002.81,0002.43
2023-12-27 05:54:00,SystemResetWarning,0827.9,5.01,000.00,019.9,019.2,000.0,028.2,021.1,12.9,0000.0,0005.03,0002.81,0002.43
2023-12-27 05:55:00,SystemResetWarning,0827.8,5.01,000.00,019.9,019.1,000.0,028.2,021.1,12.9,0000.0,0005.19,0002.86,0002.49
2023-12-27 05:56:00,SystemResetWarning,0828.0,5.00,000.00,019.9,019.2,000.0,028.2,021.1,13.0,0000.0,0005.94,0003.01,0002.60
2023-12-27 05:57:00,SystemResetWarning,0827.8,5.00,000.00,019.9,019.2,000.0,028.2,021.1,13.0,0000.0,0006.54,0003.08,0002.67
2023-12-27 05:58:00,SystemResetWarning,0827.8,5.00,000.00,019.9,019.2,000.0,028.2,021.1,13.0,0000.0,0006.67,0003.15,0002.76
2023-12-27 05:59:00,SystemResetWarning,0827.9,5.00,000.00,019.9,019.2,000.0,028.2,021.1,13.0,0000.0,0006.84,0003.22,0002.86
